Погода в Инжич-Чукуне

Россия / Карачаево-Черкесская Республика     44°02′19″N   41°46′55″E
темп.,
°C
ветер,
м/с
пор.,
м/с
влажн.,
%
обл.,
%
осадки,
мм/ч
давл.,
гПа
погр.,
м
13 апреля, вт
вт1300:00+4с1195100 1.1 102382
03:00+4всв1196100 1.1 102383
06:00+4с1196100 0.1 102280
09:00+5в1190100 0.9 1022330
12:00+6св2291100 0.2 1022495
15:00+6св2292100 0.2 1022493
18:00+6с229299 0.1 1021331
21:00+5зюз1197100 0.2 1020107
14 апреля, ср
ср1400:00+5юв1194100 4.6 1020527
03:00+5зюз1293100 4.8 1019279
06:00+5юз1191100 0.1 101949
09:00+7ссв117667 0.1 1018523
12:00+9с326992 0.0 1016986
15:00+11ссз446876 0.0 10161008
18:00+8ссв228195 0.1 1018437
21:00+7ссв008619 0.1 101844
15 апреля, чт
чт1500:00+5ю229273 0.0 101815
03:00+3ю346881 0.0 101949
06:00+2ю336010 0.0 101942
09:00+10юв11395 0.0 1017384
12:00+14ссв32345 0.0 10151202
15:00+15ссв424010 0.0 10151821
18:00+12св4660100 0.1 1016280
21:00+8вюв117171 0.1 101710
16 апреля, пт
пт1600:00+6ю2280100 0.0 101717
03:00+6ю2274100 0.0 101727
06:00+6ю3269100 0.0 101731
09:00+13вюв1149100 0.0 1015476
12:00+16св334591 0.0 10141426
15:00+16зсз4448100 0.1 10132063
18:00+7с4795100 1.1 1018594
21:00+7з1196100 1.3 1020226
17 апреля, сб
сб1700:00+7с1189100 0.0 1018226
03:00+7сз1293100 0.1 1020240
06:00+5ссв3496100 1.1 1021377
09:00+5св2293100 1.4 1022350
12:00+6св2289100 0.1 1022607
15:00+7св3388100 0.1 1021539
18:00+6св2393100 0.8 1021226
21:00+6всв1195100 1.4 102176